Location: Great Falls
(47.5000°N, 111.3000°W)
Time: 01:07:53
(UTC-07:00)

ISS - Visible Passes

Search period start: 18 February 2019 00:00
Search period end: 28 February 2019 00:00
Orbit: 403 x 411 km, 51.6° (Epoch: 18 February)

Date Brightness Start Highest point End Pass type
(mag) Time Alt. Az. Time Alt. Az. Time Alt. Az.
23 Feb -1.1 06:16:23 10° S 06:18:42 18° SE 06:21:02 10° E visible
24 Feb -0.7 05:26:38 10° SSE 05:27:26 11° SE 05:28:16 10° ESE visible
25 Feb -2.4 06:08:55 10° SSW 06:11:58 36° SE 06:15:00 10° ENE visible
26 Feb -1.7 05:19:18 18° S 05:20:34 22° SE 05:23:12 10° E visible
27 Feb -0.8 04:30:07 13° ESE 04:30:07 13° ESE 04:30:57 10° ESE visible
27 Feb -3.7 06:02:50 16° SW 06:05:17 74° SSE 06:08:33 10° ENE visible
